Location: Hilton Head Island
(32.2163°N, 80.7526°W)
Time: 20:18:27
(UTC-04:00)

Vanguard 1 - Pass Details

Date: 23 February 2026
Orbit: 653 x 3818 km, 34.2° (Epoch: 9 March)

Event Time Altitude Azimuth Distance (km) Brightness Sun altitude
Rises 16:14:08 0° 272° (W) 4,388 14.3 23.3°
Reaches altitude 10° 16:16:30 10° 273° (W) 3,698 14.1 22.9°
Maximum altitude 16:26:44 82° 2° (N) 2,323 12.3 21.0°
Drops below altitude 10° 16:46:06 10° 91° (E) 6,471 13.7 17.3°
Sets 16:51:51 0° 92° (E) 7,760 14.1 16.2°
